Location: �perlecques
(50.8057°N, 2.1521°E)
Time: 11:56:22
(UTC+00:00)

Vanguard 1 Rocket - Pass Details

Date: 05 August 2021
Orbit: 650 x 4226 km, 34.3° (Epoch: 17 September)

Event Time Altitude Azimuth Distance (km) Brightness Sun altitude
Rises 09:13:12 0° 234° (SW) 8,357 12.1 42.9°
Reaches altitude 10° 09:20:01 10° 227° (SW) 7,065 11.9 43.8°
Maximum altitude 09:38:44 38° 171° (S) 3,814 11.7 46.2°
Drops below altitude 10° 09:49:57 10° 109° (ESE) 4,314 11.7 47.6°
Sets 09:52:56 0° 101° (E) 4,920 11.7 47.9°
